| time (UTC) | temp F | wind direction | speed MPH | gust MPH | rain 1hr in | rain 24hr in | rain mn in | humidity % | barometer mb |
| 20260503193104 | 62 | 238 | 12.0 | 22.0 | 0.00 | 0.00 | 0.00 | 42 | 1011.3 |
| 20260503192604 | 62 | 263 | 9.0 | 17.0 | 0.00 | 0.00 | 0.00 | 42 | 1011.4 |
| 20260503191604 | 62 | 194 | 5.0 | 13.0 | 0.00 | 0.00 | 0.00 | 44 | 1011.5 |
| 20260503191103 | 61 | 170 | 5.0 | 14.0 | 0.00 | 0.00 | 0.00 | 45 | 1011.5 |
| 20260503190604 | 61 | 281 | 9.0 | 18.0 | 0.00 | 0.00 | 0.00 | 44 | 1011.6 |
| 20260503185604 | 61 | 255 | 10.0 | 20.0 | 0.00 | 0.00 | 0.00 | 44 | 1011.8 |
| 20260503184604 | 61 | 274 | 9.0 | 18.0 | 0.00 | 0.00 | 0.00 | 44 | 1011.8 |
| 20260503184104 | 61 | 200 | 10.0 | 18.0 | 0.00 | 0.00 | 0.00 | 42 | 1011.9 |
| 20260503183604 | 61 | 163 | 7.0 | 17.0 | 0.00 | 0.00 | 0.00 | 44 | 1011.9 |
| 20260503183103 | 61 | 272 | 7.0 | 20.0 | 0.00 | 0.00 | 0.00 | 44 | 1012.1 |
| 20260503182605 | 61 | 267 | 10.0 | 20.0 | 0.00 | 0.00 | 0.00 | 43 | 1012.2 |
| 20260503182103 | 60 | 277 | 12.0 | 18.0 | 0.00 | 0.00 | 0.00 | 44 | 1012.2 |
| 20260503181604 | 60 | 264 | 8.0 | 16.0 | 0.00 | 0.00 | 0.00 | 46 | 1012.2 |
| 20260503181104 | 60 | 276 | 9.0 | 20.0 | 0.00 | 0.00 | 0.00 | 44 | 1012.4 |
| 20260503180604 | 60 | 248 | 7.0 | 13.0 | 0.00 | 0.00 | 0.00 | 44 | 1012.5 |
| 20260503180106 | 60 | 269 | 12.0 | 17.0 | 0.00 | 0.00 | 0.00 | 43 | 1012.5 |
| 20260503175604 | 60 | 279 | 11.0 | 17.0 | 0.00 | 0.00 | 0.00 | 44 | 1012.6 |
| 20260503175103 | 60 | 278 | 10.0 | 20.0 | 0.00 | 0.00 | 0.00 | 44 | 1012.7 |
| 20260503174104 | 60 | 257 | 8.0 | 21.0 | 0.00 | 0.00 | 0.00 | 44 | 1012.8 |
| 20260503173604 | 60 | 224 | 7.0 | 20.0 | 0.00 | 0.00 | 0.00 | 44 | 1012.9 |
| 20260503172604 | 59 | 258 | 7.0 | 21.0 | 0.00 | 0.00 | 0.00 | 43 | 1013.0 |
| 20260503171604 | 59 | 269 | 10.0 | 20.0 | 0.00 | 0.00 | 0.00 | 46 | 1013.2 |
| 20260503171103 | 58 | 263 | 5.0 | 13.0 | 0.00 | 0.00 | 0.00 | 46 | 1013.3 |
| 20260503170603 | 59 | 257 | 7.0 | 16.0 | 0.00 | 0.00 | 0.00 | 45 | 1013.4 |
| 20260503170106 | 59 | 239 | 6.0 | 15.0 | 0.00 | 0.00 | 0.00 | 46 | 1013.4 |
| 20260503160106 | 55 | 271 | 5.0 | 13.0 | 0.00 | 0.00 | 0.00 | 51 | 1014.1 |
| 20260503150604 | 54 | 259 | 9.0 | 15.0 | 0.00 | 0.00 | 0.00 | 50 | 1014.4 |
| 20260503140105 | 49 | 263 | 6.0 | 15.0 | 0.00 | 0.00 | 0.00 | 60 | 1014.5 |
| 20260503131104 | 45 | 278 | 5.0 | 9.0 | 0.00 | 0.00 | 0.00 | 66 | 1014.9 |
| 20260503130604 | 45 | 273 | 3.0 | 10.0 | 0.00 | 0.00 | 0.00 | 66 | 1014.8 |
| 20260503130106 | 44 | 267 | 5.0 | 13.0 | 0.00 | 0.00 | 0.00 | 65 | 1014.9 |
| 20260503120105 | 40 | 208 | 3.0 | 9.0 | 0.00 | 0.00 | 0.00 | 69 | 1014.7 |
| 20260503110603 | 39 | 190 | 2.0 | 5.0 | 0.00 | 0.00 | 0.00 | 68 | 1014.6 |
| 20260503110106 | 39 | 189 | 2.0 | 5.0 | 0.00 | 0.00 | 0.00 | 68 | 1014.6 |
| 20260503100106 | 38 | 170 | 2.0 | 3.0 | 0.00 | 0.00 | 0.00 | 68 | 1014.8 |
| 20260503090105 | 37 | 262 | 2.0 | 3.0 | 0.00 | 0.00 | 0.00 | 70 | 1015.1 |
| 20260503081604 | 37 | 230 | 0.0 | 2.0 | 0.00 | 0.00 | 0.00 | 69 | 1015.3 |
| 20260503080604 | 38 | 203 | 0.0 | 3.0 | 0.00 | 0.00 | 0.00 | 68 | 1015.4 |
| 20260503080105 | 38 | 229 | 1.0 | 3.0 | 0.00 | 0.00 | 0.00 | 68 | 1015.4 |
| 20260503072604 | 38 | 224 | 1.0 | 3.0 | 0.00 | 0.00 | 0.00 | 68 | 1015.5 |
| 20260503072104 | 38 | 270 | 0.0 | 2.0 | 0.00 | 0.00 | 0.00 | 68 | 1015.5 |
| 20260503071105 | 38 | 252 | 1.0 | 2.0 | 0.00 | 0.00 | 0.00 | 69 | 1015.4 |
| 20260503070604 | 38 | 265 | 1.0 | 2.0 | 0.00 | 0.00 | 0.00 | 69 | 1015.5 |
| 20260503070106 | 38 | 265 | 0.0 | 2.0 | 0.00 | 0.00 | 0.00 | 69 | 1015.5 |
| 20260503060106 | 37 | 296 | 1.0 | 2.0 | 0.00 | 0.00 | 0.00 | 70 | 1015.9 |
| 20260503055103 | 38 | 296 | 1.0 | 3.0 | 0.00 | 0.00 | 0.00 | 70 | 1016.0 |
| 20260503054604 | 38 | 296 | 0.0 | 1.0 | 0.00 | 0.00 | 0.00 | 70 | 1016.1 |
| 20260503054105 | 38 | 296 | 1.0 | 2.0 | 0.00 | 0.00 | 0.00 | 70 | 1016.1 |
| 20260503053604 | 38 | 296 | 1.0 | 2.0 | 0.00 | 0.00 | 0.00 | 70 | 1016.1 |
| 20260503053104 | 38 | 296 | 0.0 | 1.0 | 0.00 | 0.00 | 0.00 | 70 | 1016.1 |
| 20260503052604 | 38 | 296 | 0.0 | 1.0 | 0.00 | 0.00 | 0.00 | 70 | 1016.1 |
| 20260503052104 | 38 | 296 | 0.0 | 1.0 | 0.00 | 0.00 | 0.00 | 70 | 1016.1 |
| 20260503051604 | 38 | 296 | 1.0 | 2.0 | 0.00 | 0.00 | 0.00 | 70 | 1016.2 |
| 20260503051104 | 38 | 296 | 1.0 | 2.0 | 0.00 | 0.00 | 0.00 | 69 | 1016.2 |
| 20260503050604 | 38 | 296 | 0.0 | 1.0 | 0.00 | 0.00 | 0.00 | 69 | 1016.3 |
| 20260503045604 | 39 | 296 | 0.0 | 2.0 | 0.00 | 0.00 | 0.00 | 69 | 1016.4 |
| 20260503045104 | 39 | 296 | 1.0 | 2.0 | 0.00 | 0.00 | 0.00 | 68 | 1016.4 |
| 20260503044604 | 39 | 296 | 1.0 | 2.0 | 0.00 | 0.00 | 0.00 | 68 | 1016.3 |
| 20260503044104 | 39 | 296 | 1.0 | 3.0 | 0.00 | 0.00 | 0.00 | 68 | 1016.4 |
| 20260503043604 | 39 | 296 | 1.0 | 2.0 | 0.00 | 0.00 | 0.00 | 68 | 1016.4 |
| 20260503043104 | 39 | 296 | 0.0 | 2.0 | 0.00 | 0.00 | 0.00 | 68 | 1016.3 |
| 20260503042605 | 39 | 296 | 0.0 | 2.0 | 0.00 | 0.00 | 0.00 | 68 | 1016.3 |
| 20260503042104 | 39 | 296 | 1.0 | 2.0 | 0.00 | 0.00 | 0.00 | 68 | 1016.4 |
| 20260503041604 | 39 | 296 | 0.0 | 1.0 | 0.00 | 0.00 | 0.00 | 68 | 1016.4 |
| 20260503041104 | 39 | 296 | 1.0 | 2.0 | 0.00 | 0.00 | 0.00 | 69 | 1016.5 |
| 20260503035104 | 40 | 296 | 0.0 | 1.0 | 0.00 | 0.00 | 0.00 | 68 | 1016.5 |
| 20260503034604 | 40 | 296 | 0.0 | 0.0 | 0.00 | 0.00 | 0.00 | 68 | 1016.6 |
| 20260503034103 | 40 | 296 | 0.0 | 1.0 | 0.00 | 0.00 | 0.00 | 68 | 1016.5 |
| 20260503033604 | 41 | 296 | 0.0 | 0.0 | 0.00 | 0.00 | 0.00 | 67 | 1016.5 |
| 20260503033104 | 41 | 296 | 0.0 | 1.0 | 0.00 | 0.00 | 0.00 | 67 | 1016.6 |
| 20260503032604 | 41 | 296 | 1.0 | 2.0 | 0.00 | 0.00 | 0.00 | 67 | 1016.6 |
| 20260503032104 | 41 | 296 | 0.0 | 2.0 | 0.00 | 0.00 | 0.00 | 67 | 1016.6 |
| 20260503030604 | 41 | 296 | 0.0 | 2.0 | 0.00 | 0.00 | 0.00 | 66 | 1016.6 |
| 20260503025603 | 41 | 296 | 0.0 | 1.0 | 0.00 | 0.00 | 0.00 | 66 | 1016.6 |
| 20260503025104 | 41 | 296 | 0.0 | 1.0 | 0.00 | 0.00 | 0.00 | 66 | 1016.7 |
| 20260503024104 | 41 | 296 | 0.0 | 1.0 | 0.00 | 0.00 | 0.00 | 64 | 1016.8 |
| 20260503023604 | 42 | 296 | 0.0 | 0.0 | 0.00 | 0.00 | 0.00 | 63 | 1016.7 |
| 20260503023105 | 42 | 296 | 0.0 | 1.0 | 0.00 | 0.00 | 0.00 | 63 | 1016.7 |
| 20260503022104 | 43 | 296 | 0.0 | 0.0 | 0.00 | 0.00 | 0.00 | 61 | 1016.7 |
| 20260503021604 | 43 | 296 | 0.0 | 0.0 | 0.00 | 0.00 | 0.00 | 60 | 1016.6 |
| 20260503021104 | 44 | 296 | 0.0 | 1.0 | 0.00 | 0.00 | 0.00 | 59 | 1016.5 |
| 20260503020604 | 44 | 296 | 0.0 | 0.0 | 0.00 | 0.00 | 0.00 | 58 | 1016.5 |
| 20260503020105 | 44 | 296 | 0.0 | 0.0 | 0.00 | 0.00 | 0.00 | 58 | 1016.4 |
| 20260503015604 | 44 | 296 | 0.0 | 1.0 | 0.00 | 0.00 | 0.00 | 57 | 1016.4 |
| 20260503015104 | 45 | 296 | 0.0 | 1.0 | 0.00 | 0.00 | 0.00 | 57 | 1016.4 |
| 20260503014604 | 45 | 296 | 0.0 | 2.0 | 0.00 | 0.00 | 0.00 | 56 | 1016.4 |
| 20260503014104 | 45 | 314 | 0.0 | 2.0 | 0.00 | 0.00 | 0.00 | 56 | 1016.3 |
| 20260503013604 | 45 | 314 | 0.0 | 2.0 | 0.00 | 0.00 | 0.00 | 55 | 1016.3 |
| 20260503012604 | 45 | 315 | 0.0 | 1.0 | 0.00 | 0.00 | 0.00 | 54 | 1016.2 |
| 20260503012104 | 45 | 315 | 0.0 | 1.0 | 0.00 | 0.00 | 0.00 | 55 | 1016.2 |
| 20260503011105 | 46 | 315 | 0.0 | 1.0 | 0.00 | 0.00 | 0.00 | 54 | 1016.2 |
| 20260503010604 | 46 | 315 | 0.0 | 1.0 | 0.00 | 0.00 | 0.00 | 53 | 1016.2 |
| 20260503010105 | 46 | 315 | 0.0 | 1.0 | 0.00 | 0.00 | 0.00 | 52 | 1016.2 |
| 20260503005604 | 46 | 315 | 0.0 | 1.0 | 0.00 | 0.00 | 0.00 | 52 | 1016.1 |
| 20260503005105 | 46 | 315 | 0.0 | 1.0 | 0.00 | 0.00 | 0.00 | 51 | 1016.1 |
| 20260503004604 | 47 | 315 | 0.0 | 1.0 | 0.00 | 0.00 | 0.00 | 50 | 1016.1 |
| 20260503004104 | 47 | 315 | 0.0 | 1.0 | 0.00 | 0.00 | 0.00 | 50 | 1016.0 |
| 20260503003104 | 47 | 315 | 0.0 | 2.0 | 0.00 | 0.00 | 0.00 | 50 | 1015.9 |
| 20260503002604 | 47 | 315 | 0.0 | 2.0 | 0.00 | 0.00 | 0.00 | 50 | 1015.9 |
| 20260503001604 | 47 | 315 | 1.0 | 3.0 | 0.00 | 0.00 | 0.00 | 49 | 1015.9 |
| 20260503001105 | 47 | 315 | 2.0 | 3.0 | 0.00 | 0.00 | 0.00 | 49 | 1015.9 |
| 20260503000604 | 47 | 294 | 3.0 | 5.0 | 0.00 | 0.00 | 0.00 | 49 | 1015.9 |
| 20260503000105 | 47 | 324 | 2.0 | 3.0 | 0.00 | 0.00 | 0.00 | 49 | 1015.9 |
| 20260502235604 | 47 | 306 | 2.0 | 3.0 | 0.00 | 0.00 | 0.00 | 49 | 1015.9 |
| 20260502234604 | 47 | 308 | 2.0 | 3.0 | 0.00 | 0.00 | 0.00 | 49 | 1016.0 |
| 20260502234104 | 47 | 288 | 3.0 | 8.0 | 0.00 | 0.00 | 0.00 | 48 | 1015.9 |
| 20260502233604 | 48 | 312 | 2.0 | 5.0 | 0.00 | 0.00 | 0.00 | 48 | 1015.9 |
| 20260502233104 | 47 | 257 | 2.0 | 6.0 | 0.00 | 0.00 | 0.00 | 48 | 1016.0 |
| 20260502231604 | 47 | 334 | 3.0 | 6.0 | 0.00 | 0.00 | 0.00 | 48 | 1016.1 |
| 20260502231104 | 47 | 288 | 2.0 | 7.0 | 0.00 | 0.00 | 0.00 | 47 | 1016.1 |
| 20260502230604 | 48 | 297 | 3.0 | 9.0 | 0.00 | 0.00 | 0.00 | 47 | 1016.1 |
| 20260502230105 | 48 | 311 | 3.0 | 7.0 | 0.00 | 0.00 | 0.00 | 46 | 1016.2 |
| 20260502225605 | 48 | 331 | 4.0 | 9.0 | 0.00 | 0.00 | 0.00 | 46 | 1016.2 |
| 20260502225104 | 48 | 312 | 4.0 | 9.0 | 0.00 | 0.00 | 0.00 | 47 | 1016.2 |
| 20260502224604 | 47 | 342 | 3.0 | 6.0 | 0.00 | 0.00 | 0.00 | 48 | 1016.2 |
| 20260502224104 | 47 | 264 | 5.0 | 9.0 | 0.00 | 0.00 | 0.00 | 48 | 1016.2 |
| 20260502223604 | 47 | 340 | 3.0 | 5.0 | 0.00 | 0.00 | 0.00 | 46 | 1016.3 |
| 20260502223104 | 47 | 325 | 3.0 | 6.0 | 0.00 | 0.00 | 0.00 | 46 | 1016.3 |
| 20260502222604 | 47 | 316 | 3.0 | 8.0 | 0.00 | 0.00 | 0.00 | 45 | 1016.2 |
| 20260502222104 | 47 | 330 | 3.0 | 9.0 | 0.00 | 0.00 | 0.00 | 45 | 1016.4 |
| 20260502221604 | 48 | 337 | 2.0 | 5.0 | 0.00 | 0.00 | 0.00 | 45 | 1016.4 |
| 20260502221105 | 48 | 343 | 3.0 | 8.0 | 0.00 | 0.00 | 0.00 | 45 | 1016.4 |
| 20260502220604 | 48 | 317 | 5.0 | 9.0 | 0.00 | 0.00 | 0.00 | 46 | 1016.4 |
| 20260502215604 | 47 | 325 | 4.0 | 9.0 | 0.00 | 0.00 | 0.00 | 46 | 1016.4 |
| 20260502215104 | 47 | 9 | 3.0 | 8.0 | 0.00 | 0.00 | 0.00 | 45 | 1016.4 |
| 20260502214604 | 47 | 341 | 6.0 | 12.0 | 0.00 | 0.00 | 0.00 | 44 | 1016.4 |
| 20260502214105 | 47 | 325 | 4.0 | 8.0 | 0.00 | 0.00 | 0.00 | 46 | 1016.4 |
| 20260502213605 | 47 | 316 | 4.0 | 7.0 | 0.00 | 0.00 | 0.00 | 45 | 1016.4 |
| 20260502213104 | 47 | 306 | 5.0 | 9.0 | 0.00 | 0.00 | 0.00 | 46 | 1016.4 |
| 20260502212104 | 47 | 333 | 4.0 | 10.0 | 0.00 | 0.00 | 0.00 | 46 | 1016.4 |
| 20260502211605 | 47 | 322 | 5.0 | 9.0 | 0.00 | 0.00 | 0.00 | 46 | 1016.5 |
| 20260502211104 | 47 | 287 | 3.0 | 10.0 | 0.00 | 0.00 | 0.00 | 46 | 1016.6 |
| 20260502210603 | 47 | 352 | 6.0 | 10.0 | 0.00 | 0.00 | 0.00 | 45 | 1016.5 |
| 20260502205104 | 47 | 330 | 3.0 | 9.0 | 0.00 | 0.00 | 0.00 | 46 | 1016.6 |
| 20260502204604 | 47 | 278 | 3.0 | 9.0 | 0.00 | 0.00 | 0.00 | 47 | 1016.6 |
| 20260502204104 | 47 | 315 | 5.0 | 12.0 | 0.00 | 0.00 | 0.00 | 45 | 1016.7 |
| 20260502203604 | 47 | 341 | 5.0 | 12.0 | 0.00 | 0.00 | 0.00 | 46 | 1016.7 |
| 20260502203104 | 47 | 326 | 7.0 | 14.0 | 0.00 | 0.00 | 0.00 | 46 | 1016.8 |
| 20260502202604 | 47 | 290 | 6.0 | 9.0 | 0.00 | 0.00 | 0.00 | 46 | 1016.7 |
| 20260502201604 | 47 | 339 | 5.0 | 12.0 | 0.00 | 0.00 | 0.00 | 45 | 1016.9 |
| 20260502201103 | 47 | 304 | 6.0 | 13.0 | 0.00 | 0.00 | 0.00 | 45 | 1017.0 |
| 20260502200604 | 47 | 315 | 9.0 | 12.0 | 0.00 | 0.00 | 0.00 | 46 | 1016.9 |
| 20260502200105 | 48 | 340 | 5.0 | 10.0 | 0.00 | 0.00 | 0.00 | 45 | 1017.0 |
| 20260502195604 | 47 | 275 | 3.0 | 8.0 | 0.00 | 0.00 | 0.00 | 49 | 1016.9 |
| 20260502194604 | 47 | 328 | 5.0 | 12.0 | 0.00 | 0.00 | 0.00 | 47 | 1017.1 |
| 20260502194105 | 46 | 302 | 6.0 | 12.0 | 0.00 | 0.00 | 0.00 | 46 | 1017.2 |